This demonstration page uses our WeatherBlox Daily Observations layout. Learn more.

Left ArrowRight Arrow

Hourly Observations for October 30, 2016

Temp ( °F °C ) Dew Point ( °F °C ) Humidity (%) Winds ( mph kmh ) Pressure ( in mb ) Visibility ( mi km ) Precip ( " mm )
12:17 am 00:17 Clear 61 16 55 13 83 83 S 5 7 30.03 1017 10 16.0934 N/A
12:37 am 00:37 Clear 59 15 54 12 82 82 S 5 7 30.03 1017 10 16.0934 N/A
1:17 am 01:17 Clear 63 17 55 13 77 77 SSW 5 7 30.03 1017 10 16.0934 N/A
1:37 am 01:37 Clear 63 17 55 13 77 77 SSW 5 7 30.03 1017 10 16.0934 N/A
1:57 am 01:57 Clear 63 17 55 13 77 77 SSW 5 7 30.03 1017 10 16.0934 N/A
2:17 am 02:17 Partly Cloudy 63 17 55 13 77 77 S 5 7 30.03 1017 10 16.0934 N/A
2:37 am 02:37 Clear 63 17 55 13 77 77 SSW 5 7 30.03 1017 10 16.0934 N/A
2:57 am 02:57 Clear 61 16 55 13 83 83 S 6 9 30.03 1017 10 16.0934 N/A
3:17 am 03:17 Clear 63 17 55 13 77 77 SSW 3 6 30.03 1017 10 16.0934 N/A
3:37 am 03:37 Clear 61 16 55 13 83 83 SSW 6 9 30 1016 10 16.0934 N/A
3:57 am 03:57 Partly Cloudy 63 17 55 13 77 77 SSW 7 11 30 1016 10 16.0934 N/A
4:17 am 04:17 Cloudy 64 18 57 14 78 78 SW 7 11 30 1016 10 16.0934 N/A
4:37 am 04:37 Mostly Cloudy 66 19 55 13 68 68 SW 8 13 30 1016 10 16.0934 N/A
4:57 am 04:57 Cloudy 66 19 57 14 73 73 SW 9 15 30 1016 10 16.0934 N/A
5:17 am 05:17 Cloudy 66 19 55 13 68 68 SW 9 15 30 1016 10 16.0934 N/A
5:37 am 05:37 Mostly Cloudy 64 18 55 13 73 73 SW 7 11 30 1016 10 16.0934 N/A
5:56 am 05:56 Cloudy 64 18 55 13 73 73 SW 8 13 30 1016 10 16.0934 N/A
6:17 am 06:17 Mostly Cloudy 64 18 55 13 73 73 SW 8 13 30 1016 10 16.0934 N/A
6:37 am 06:37 Mostly Cloudy 64 18 55 13 73 73 SW 7 11 30 1016 10 16.0934 N/A
6:56 am 06:56 Mostly Cloudy 64 18 55 13 73 73 WSW 8 13 30 1016 10 16.0934 N/A
7:17 am 07:17 Mostly Cloudy 64 18 55 13 73 73 SW 8 13 30 1016 10 16.0934 N/A
7:37 am 07:37 Partly Cloudy 64 18 55 13 73 73 WSW 8 13 30 1016 10 16.0934 N/A
7:57 am 07:57 Clear 63 17 55 13 77 77 WSW 9 15 30 1016 10 16.0934 N/A
8:17 am 08:17 Sunny 63 17 55 13 77 77 WSW 8 13 30 1016 10 16.0934 N/A
8:37 am 08:37 Sunny 63 17 55 13 77 77 WSW 8 13 30 1016 10 16.0934 N/A
8:57 am 08:57 Sunny 63 17 55 13 77 77 WSW 8 13 30 1016 10 16.0934 N/A
9:17 am 09:17 Sunny 64 18 55 13 73 73 WSW 9 15 30 1016 10 16.0934 N/A
9:37 am 09:37 Sunny 64 18 57 14 78 78 W 8 13 30.03 1017 10 16.0934 N/A
9:57 am 09:57 Sunny 66 19 57 14 73 73 W 9 15 30.03 1017 10 16.0934 N/A
10:17 am 10:17 Sunny 68 20 57 14 69 69 W 14 22 30.03 1017 10 16.0934 N/A
10:37 am 10:37 Sunny 68 20 57 14 69 69 WNW 14 22 30.03 1017 10 16.0934 N/A
10:57 am 10:57 Sunny 68 20 57 14 69 69 W 14 22 30.03 1017 10 16.0934 N/A
11:17 am 11:17 Partly Cloudy 68 20 57 14 69 69 WNW 13 20 30.03 1017 10 16.0934 N/A
11:37 am 11:37 Partly Cloudy 68 20 57 14 69 69 NW 12 19 30.06 1018 10 16.0934 N/A
11:57 am 11:57 Mostly Cloudy 68 20 57 14 69 69 NNW 14 22 30.06 1018 10 16.0934 N/A
12:17 pm 12:17 Cloudy 66 19 57 14 73 73 NNW 7 11 30.06 1018 10 16.0934 N/A
12:37 pm 12:37 Cloudy 64 18 57 14 78 78 N 12 19 30.06 1018 7 11.26538 N/A
12:57 pm 12:57 Cloudy 63 17 57 14 83 83 N 10 17 30.09 1019 5 8.0467 N/A
1:17 pm 13:17 Cloudy 63 17 57 14 83 83 N 9 15 30.09 1019 5 8.0467 N/A
1:37 pm 13:37 Cloudy 63 17 57 14 83 83 N 6 9 30.09 1019 5 8.0467 N/A
1:57 pm 13:57 Cloudy 61 16 57 14 88 88 N 8 13 30.09 1019 4 6.43736 N/A
2:17 pm 14:17 Cloudy 61 16 57 14 88 88 N 10 17 30.09 1019 4 6.43736 N/A
2:37 pm 14:37 Cloudy 61 16 57 14 88 88 NNW 9 15 30.09 1019 5 8.0467 N/A
2:57 pm 14:57 Cloudy 61 16 57 14 88 88 N 12 19 30.09 1019 7 11.26538 N/A
3:17 pm 15:17 Cloudy 59 15 55 13 88 88 N 8 13 30.09 1019 10 16.0934 N/A
3:37 pm 15:37 Cloudy 59 15 55 13 88 88 N 13 20 30.09 1019 7 11.26538 N/A
3:57 pm 15:57 Cloudy 57 14 55 13 94 94 N 10 17 30.09 1019 7 11.26538 N/A
4:17 pm 16:17 Cloudy 57 14 55 13 94 94 NNE 13 20 30.09 1019 5 8.0467 N/A
4:37 pm 16:37 Cloudy 57 14 54 12 88 88 N 12 19 30.12 1020 10 16.0934 N/A
4:57 pm 16:57 Cloudy 57 14 54 12 88 88 NNE 14 22 30.12 1020 10 16.0934 N/A
5:17 pm 17:17 Cloudy 57 14 54 12 88 88 NNE 13 20 30.12 1020 10 16.0934 N/A
5:37 pm 17:37 Cloudy 57 14 54 12 88 88 NNE 10 17 30.12 1020 10 16.0934 N/A
5:57 pm 17:57 Cloudy 57 14 54 12 88 88 NNE 13 20 30.12 1020 10 16.0934 N/A
6:17 pm 18:17 Cloudy 57 14 52 11 82 82 N 15 24 30.12 1020 10 16.0934 N/A
6:37 pm 18:37 Cloudy 55 13 52 11 88 88 NNE 10 17 30.15 1021 10 16.0934 N/A
6:57 pm 18:57 Cloudy 55 13 50 10 82 82 NNE 9 15 30.15 1021 10 16.0934 N/A
7:17 pm 19:17 Cloudy 55 13 50 10 82 82 NNE 10 17 30.15 1021 10 16.0934 N/A
7:37 pm 19:37 Mostly Cloudy 54 12 50 10 88 88 NE 6 9 30.18 1022 10 16.0934 N/A
7:57 pm 19:57 Cloudy 54 12 50 10 88 88 NNE 3 6 30.18 1022 10 16.0934 N/A
8:17 pm 20:17 Partly Cloudy 52 11 48 9 88 88 NNE 3 6 30.21 1023 10 16.0934 N/A
8:37 pm 20:37 Mostly Cloudy 50 10 48 9 94 94 NNE 5 7 30.21 1023 10 16.0934 N/A
8:57 pm 20:57 Partly Cloudy 50 10 48 9 94 94 NNE 5 7 30.21 1023 10 16.0934 N/A
9:17 pm 21:17 Clear 50 10 48 9 94 94 N 6 9 30.21 1023 10 16.0934 N/A
9:37 pm 21:37 Clear 52 11 48 9 88 88 NNE 10 17 30.21 1023 10 16.0934 N/A
9:57 pm 21:57 Partly Cloudy 52 11 46 8 82 82 NNE 8 13 30.21 1023 10 16.0934 N/A
10:17 pm 22:17 Partly Cloudy 50 10 46 8 88 88 NE 7 11 30.21 1023 10 16.0934 N/A
10:37 pm 22:37 Clear 50 10 46 8 88 88 NE 3 6 30.21 1023 10 16.0934 N/A
10:57 pm 22:57 Clear 48 9 45 7 87 87 NE 7 11 30.21 1023 10 16.0934 N/A
11:17 pm 23:17 Partly Cloudy 48 9 45 7 87 87 NE 5 7 30.21 1023 10 16.0934 N/A
11:37 pm 23:37 Mostly Cloudy 48 9 45 7 87 87 NE 5 7 30.21 1023 10 16.0934 N/A
11:57 pm 23:57 Cloudy 48 9 45 7 87 87 NE 5 7 30.21 1023 10 16.0934 N/A

Powered by AerisWeather